Погода в Каширском

Россия / Воронежская область     51°24′31″N   39°35′14″E
темп.,
°C
ветер,
м/с
пор.,
м/с
влажн.,
%
обл.,
%
осадки,
мм/ч
давл.,
гПа
погр.,
м
14 апреля, ср
ср1400:00+13ююв2279100 0.0 102229
03:00+12в1185100 0.0 102211
06:00+10вюв4857100 0.0 1020119
09:00+14вюв584791 0.0 1020428
12:00+18юв682869 0.0 10181459
15:00+21ююв692385 0.0 10172252
18:00+19ююв483999 0.0 1016267
21:00+15юв3349100 0.0 101653
15 апреля, чт
чт1500:00+13юв225594 0.0 101523
03:00+12юв3461100 0.0 101564
06:00+11юв3666100 0.0 1015144
09:00+14ююв3462100 0.0 1014378
12:00+17ю5654100 0.0 10141268
15:00+18ю464599 0.4 10142097
18:00+16юв245184 0.0 1014260
21:00+14ю345997 0.0 101585
16 апреля, пт
пт1600:00+12юв00645 0.0 101410
03:00+10юв227392 0.0 101515
06:00+9юв227998 0.0 101618
09:00+13ю2366100 0.1 1016556
12:00+16ююв465299 0.1 10161609
15:00+17ююв4639100 0.2 10162443
18:00+16ююв234596 0.0 101690
21:00+12зсз4762100 0.0 1017157
17 апреля, сб
сб1700:00+11ссз116499 0.0 101711
03:00+10ююз3570100 0.0 1018106
06:00+9ююз3787100 1.5 1018300
09:00+8юз0193100 5.4 1019136
12:00+8всв3390100 9.7 1019320
15:00+9ссв2182100 10.9 1019479
18:00+10св217881 0.1 1019456
21:00+8св2489100 0.5 1020208
18 апреля, вс
вс1800:00+8ююз1392100 0.2 1020248
03:00+8всв239599 0.3 1020123
06:00+7вюв249469 0.1 1021197
09:00+9вюв337799 0.1 1022713
12:00+12ссв456082 0.0 10221224
15:00+13всв585699 0.1 10221612
18:00+11вюв457060 0.0 1024503
21:00+8ссз34825 0.0 102475